Tracking 19796 objects as of 19-Jul-2019
HD Live streaming from Space Station
objects crossing your sky now

ST5-A

Track ST5-A now!
10-day predictions
ST5-A is classified as:


NORAD ID: 28980
Int'l Code: 2006-008A
Perigee: 309.3 km
Apogee: 3,707.2 km
Inclination: 105.5 °
Period: 127.2 minutes
Semi major axis: 8379 km
RCS: 0.3025 m2 (medium)
Launch date: March 22, 2006
Source: United States (US)
Launch site: Pegasus launched from Western Range Air Space (WRAS)
aabbcc
Your satellite tracking list
Your tracking list is empty




NASA's NSSDC Master Catalog

Two Line Element Set (TLE):
1 28980U 06008A   19199.20710574  .00001136  00000-0  59504-4 0  9994
2 28980 105.5030 108.8148 2027540 255.3524  81.5353 11.31865797529277
Source of the keplerian elements: AFSPC